Regional Weather Roundup
Issued by NWS

Home | Current Version | Previous Version | Graphics & Text | Print | Product List | Glossary Off
Versions: 1 2 3 4 5 6 7 8 9 10 11 12 13 14 15 16 17 18 19 20 21 22 23 24 25 26 27 28 29 30 31 32 33 34 35 36 37 38 39 40 41 42 43 44 45 46 47 48 49 50

060
ASUS43 KMKX 261100
RWRWI

WISCONSIN REGIONAL WEATHER ROUNDUP
NATIONAL WEATHER SERVICE MILWAUKEE/SULLIVAN WI
600 AM CDT TUE JUL 26 2016

NOTE: "FAIR" INDICATES FEW OR NO CLOUDS BELOW 12,000 FEET WITH NO
SIGNIFICANT WEATHER AND/OR OBSTRUCTIONS TO VISIBILITY.

WIZ001-002-006>008-014>016-023>028-261200-
NORTHWEST WISCONSIN

CITY           SKY/WX    TMP DP  RH WIND       PRES   REMARKS
SUPERIOR ARPT  CLOUDY    67  65  91 SW5       29.98S
ASHLAND        PTCLDY    68  64  87 SW8       30.01R
HAYWARD        CLEAR     59  57  93 NE3       30.05R
SIREN          CLOUDY    66  64  94 SW5       30.03S
CUMBERLAND     CLEAR     61  59  94 CALM      30.06R FOG
RICE LAKE      FOG       61  60  96 CALM      30.07R VSB 1
CHETEK         CLEAR     62  62 100 CALM      30.05S
LADYSMITH      CLEAR     61  59  95 CALM      30.08S
EAU CLAIRE     NOT AVBL
MENOMONIE      PTCLDY    64  62  95 CALM      30.06R
NEW RICHMOND   CLEAR     67  65  93 S5        30.05S
OSCEOLA        PTCLDY    66  66 100 S6        30.06S
$$

WIZ003>005-009-010-017-018-261200-
NORTH CENTRAL WISCONSIN

CITY           SKY/WX    TMP DP  RH WIND       PRES   REMARKS
MANITOWISH WTR FOG       57  57 100 CALM      30.06R VSB 1/4
ARBOR VITAE    CLEAR     62  60  95 CALM      30.07R
WOODRUFF       CLEAR     62  60  95 CALM      30.07R
RHINELANDER    CLEAR     61  59  93 W6        30.08R
EAGLE RIVER    FOG       55  55 100 CALM      30.06R VSB 1/2
LAND O LAKES   FOG       53  53 100 CALM      30.07R VSB 3/4
PHILLIPS       CLEAR     61  61  99 CALM      30.06S
TOMAHAWK       CLEAR     55  54  96 CALM      30.07S
MEDFORD        CLEAR     58  58 100 CALM      30.08S
MERRILL        PTCLDY    55  55 100 CALM      30.08S FOG
$$

WIZ029-030-035-036-043>047-261200-
CENTRAL WISCONSIN

CITY           SKY/WX    TMP DP  RH WIND       PRES   REMARKS
WAUSAU         CLEAR     61  60  97 CALM      30.06R
MOSINEE        CLEAR     61  61 100 CALM      30.08S
MARSHFIELD     CLEAR     63  60  90 W5        30.07S
STEVENS POINT  CLEAR     56  56  98 CALM      30.07S
WAUPACA        CLEAR     63  63  99 CALM      30.06S
WAUTOMA        NOT AVBL
WISC RAPIDS    CLEAR     60  57  89 CALM      30.08S
CAMP DOUGLAS   CLEAR     55  55 100 SE1       30.07S FOG
$$

WIZ011>013-019>022-031-037>040-048>050-261200-
NORTHEAST WISCONSIN

CITY           SKY/WX    TMP DP  RH WIND       PRES   REMARKS
ANTIGO         CLEAR     56  56 100 CALM      30.08S FOG
SHAWANO        PTCLDY    62  60  93 CALM      30.05S
OCONTO         CLEAR    N/A N/A N/A CALM      30.03S
STURGEON BAY   CLEAR     65  64  97 W5        30.04S
GREEN BAY      CLEAR     62  62 100 CALM      30.04S
MANITOWOC      NOT AVBL
APPLETON       CLEAR     63  61  94 VRB3      30.04S
CLINTONVILLE   PTCLDY    61  59  94 CALM      30.05S
OSHKOSH        CLEAR     64  61  90 CALM      30.06R
$$

WIZ032>034-041-042-053>061-261200-
SOUTHWEST WISCONSIN

CITY           SKY/WX    TMP DP  RH WIND       PRES   REMARKS
LA CROSSE      CLEAR     66  64  93 SE5       30.07R
SPARTA         CLEAR     55  55  99 CALM      30.09R
VIROQUA        CLEAR     62  62 100 CALM      30.09S
BOSCOBEL       FOG       64  64 100 S3        30.09R VSB 1/4
PRAIRIE DU CHI MOCLDY    63  62  96 CALM      30.08S
PLATTEVILLE    CLEAR     63  63 100 CALM      30.09R
$$

WIZ056-057-062-063-064-067-068-261200-
SOUTH CENTRAL WISCONSIN

CITY           SKY/WX    TMP DP  RH WIND       PRES   REMARKS
REEDSBURG      CLEAR     60  60 100 CALM      30.08S
BARABOO/DELLS  CLEAR     61  59  94 CALM      30.08S
LONE ROCK      NOT AVBL
MINERAL POINT  CLEAR     64  63  94 CALM      30.09S
MADISON        PTCLDY    64  62  93 CALM      30.08R
MIDDLETON        N/A     63  63 100 CALM      30.09R VSB 1/4
WATERTOWN      FOG       62  62 100 CALM      30.07S VSB 1
MONROE         CLEAR     68  61  77 N5        30.09R
JANESVILLE       N/A     64  63  94 CALM      30.08R FOG
$$

WIZ051-052-058>065-066-070>072-261200-
SOUTHEAST WISCONSIN

CITY           SKY/WX    TMP DP  RH WIND       PRES   REMARKS
MILWAUKEE      PTCLDY    70  62  76 CALM      30.06R
WAUKESHA       CLEAR     64  63  94 W5        30.08S
MILWAUKEE/TIMM CLEAR     64  59  82 CALM      30.07S
RACINE         CLEAR     67  63  87 CALM      30.08R
BURLINGTON     CLEAR     59  59  99 CALM      30.07S FOG
KENOSHA        CLEAR     65  62  90 NW5       30.07R
FOND DU LAC    CLEAR     63  60  90 SW3       30.07S
SHEBOYGAN      PTCLDY    64  62  93 CALM      30.06R
WEST BEND      PTCLDY    61  61 100 CALM      30.07S
JUNEAU         PTCLDY    61  60  97 CALM      30.09R
$$

LSZ147-162-261200-
LAKE SUPERIOR

STATION/POSITION TIME  TEMP    WIND        PRES    WAVE
                       AIR SEA DIR/SP/G            HT/PER
                 (UTC) (F)     (DEG/KT/KT) (MB)    (FT/S)
W MID LAKE BUOY  0950   63 60  250/  8/  8 1013.9F   0
DEVILS ISLAND    1000   68     240/ 10/ 12 1015.1R
SAXON HARBOR     1040   69     190/  7/ 11 1015.6R
$$

LMZ867-665-643>646-261200-
LAKE MICHIGAN

STATION/POSITION TIME  TEMP    WIND        PRES    WAVE
                       AIR SEA DIR/SP/G            HT/PER
                 (UTC) (F)     (DEG/KT/KT) (MB)    (FT/S)
CHAMBERS ISLAND  1000   66     240/  3/  5 1016.6R
S GREEN BAY BUOY 1030   69 73  280/  6/  6   N/A
N MID LAKE BUOY  0950   69 69  220/  4/  4 1015.3R   1
NORTHPORT PIER   1000   68     280/  3/  5 1016.3R
SISTER BAY       1021   71     320/  7/  8   N/A
ALGOMA LAKESHORE 1013          320/  6/  7   N/A
KEWAUNEE LAKESHO 1000   65     300/  5/  5 1016.3R
SHEBOYGAN LAKESH 1000   71     280/  6/  7 1017.4R
PORT WASHINGTON  1000   70     300/  8/ 10 1018.3
ATWATER BUOY     1000   66 59  320/  4/  4 1019.2R
MILWAUKEE LAKESH 1010   70     140/  1/  1   N/A
S MID LAKE BUOY  0950   73 73  260/  6/  6 1016.7R   0
KENOSHA   LAKESH 1000   70     290/  5/  6 1017.3R
$$

TC  - TEMPERATURE IN CELSIUS
VSB - VISIBILITY IN STATUTE MILES
WCI - WIND CHILL INDEX
HX  - HEAT INDEX





USA.gov is the U.S. government's official web portal to all federal, state and local government web resources and services.